Weather in Petropavlovka

Russia / Chelyabinsk Oblast     55°23′36″N   59°19′29″E
temp.,
°C
wind,
m/s
gust,
m/s
humid.,
%
clouds,
%
prec.,
mm/h
press.,
hPa
HPBL,
m
8 march, mon
mon823:00−18w229860 0.1 101027
02:00−18sw2598100 0.1 1010144
05:00−19ssw2398100 0.2 101167
08:00−17sse239497 0.0 100964
11:00−11se259398 0.2 1006287
14:00−7sw51085100 0.4 10041192
17:00−6sw61384100 0.8 10021281
20:00−7wsw51494100 0.4 10021013
9 march, tue
tue923:00−7wsw6138699 1.0 10051032
02:00−11sw369327 0.0 1005161
05:00−9ese119750 0.8 100446
08:00−8ssw3129699 0.9 1002689
11:00−5wsw8137883 1.7 10041391
14:00−6w6108093 0.3 10071224
17:00−6w488195 0.4 10091028
20:00−12wsw229370 0.0 101121
10 march, wed
wed1023:00−14sse119685 0.0 101220
02:00−14ene1196100 0.0 101020
05:00−13ene2294100 0.0 100826
08:00−11ene2796100 0.6 1006346
11:00−9e4793100 1.5 1003494
14:00−8e4793100 1.2 1001549
17:00−9ene5993100 3.2 999638
20:00−11nne51094100 1.8 1001741
11 march, thu
thu1123:00−13n4994100 3.0 1003702
02:00−15nnw4895100 0.8 1005619
05:00−17nnw4796100 1.4 1009501
08:00−20wnw3697100 0.4 1012383
11:00−20w3694100 0.4 1014376
14:00−16wnw4791100 0.0 1014598
17:00−15wnw5990100 0.2 1015783
20:00−18w51195100 0.1 1018549
12 march, fri
fri1223:00−20wsw51196100 0.3 1020454
02:00−20wsw51195100 0.3 1020483
05:00−20wsw51396100 0.5 1020450
08:00−20wsw51396100 0.2 1022413
11:00−18w51095100 0.4 1023443
14:00−13w51091100 0.1 1024645
17:00−12w51089100 0.1 1024755
20:00−14w41094100 0.1 1026437